Weather History for Aktion, Greece

Change the Weather History Date:

Wednesday, November 14, 2012

  Actual Average Record
Temperature  
Mean Temperature 62 °F -  
Max Temperature 71 °F 59 °F 77 °F (2010)
Min Temperature 54 °F 48 °F 44 °F (2006)
Degree Days  
Heating Degree Days 2    
Growing Degree Days 12 (Base 50)    
Moisture  
Dew Point 50 °F    
Average Humidity 69    
Maximum Humidity 94    
Minimum Humidity 41    
Precipitation  
Precipitation 0.00 in - - ()
Sea Level Pressure  
Sea Level Pressure 30.12 in    
Wind  
Wind Speed 5 mph ()    
Max Wind Speed 15 mph    
Max Gust Speed -    
Visibility 6.2 miles    
Events      
Averages and records for this station are not official NWS values.
T = Trace of Precipitation, MM = Missing Value Source: Averaged Metar Reports

Daily Weather History Graph

Daily Weather History Graph

Search for Another Location

Airport:

Trip Planner

Search our weather history database for the weather conditions in past years. The results will help you decide how hot, cold, wet, or windy it might be!

Date:

Astronomy

Nov. 14, 2012 Rise Set
Actual Time 7:18 AM EET 5:23 PM EET
Civil Twilight 6:50 AM EET 5:52 PM EET
Nautical Twilight 6:18 AM EET 6:24 PM EET
Astronomical Twilight 5:46 AM EET 6:55 PM EET
Moon 7:46 AM EET (11/14) 5:54 PM EET (11/14)
Length of Visible Light 11h 01m
Length of Day
10h 04m
New Moon, 0% of the Moon is Illuminated
Nov 14
New Moon
Nov 20
First Quarter
Nov 28
Full
Dec 6
Last Quarter
Dec 13
New

Hourly Weather History & Observations

Time (EET) Temp. Dew Point Humidity Pressure Visibility Wind Dir Wind Speed Gust Speed Precip Events Conditions
12:50 AM 55.4 °F 51.8 °F 88% 30.12 in 6.2 mi NE 5.8 mph - N/A   Partly Cloudy
1:50 AM 53.6 °F 50.0 °F 88% 30.12 in 6.2 mi NE 4.6 mph - N/A   Partly Cloudy
2:00 AM 54 °F 50 °F 82% 30.14 in 6 mi NE 4.6 mph - -   Scattered Clouds
3:50 AM 53.6 °F 50.0 °F 88% 30.12 in 6.2 mi NE 4.6 mph - N/A   Partly Cloudy
6:20 AM 55.4 °F 51.8 °F 88% 30.12 in 6.2 mi ENE 4.6 mph - N/A   Partly Cloudy
6:50 AM 53.6 °F 51.8 °F 94% 30.12 in 6.2 mi ENE 4.6 mph - N/A   Partly Cloudy
7:20 AM 53.6 °F 50.0 °F 88% 30.12 in 6.2 mi ENE 4.6 mph - N/A   Partly Cloudy
7:50 AM 53.6 °F 50.0 °F 88% 30.12 in - East 4.6 mph - N/A   Clear
8:00 AM 54 °F 50 °F 82% 30.15 in 6 mi East 4.6 mph - -   Clear
8:20 AM 57.2 °F 51.8 °F 82% 30.15 in 6.2 mi East 4.6 mph - N/A   Partly Cloudy
8:50 AM 59.0 °F 53.6 °F 82% 30.15 in 6.2 mi East 5.8 mph - N/A   Partly Cloudy
9:20 AM 59.0 °F 50.0 °F 72% 30.15 in - ENE 5.8 mph - N/A   Clear
9:50 AM 59.0 °F 50.0 °F 72% 30.15 in - ENE 6.9 mph - N/A   Clear
10:20 AM 62.6 °F 51.8 °F 68% 30.15 in - East 5.8 mph - N/A   Clear
10:50 AM 60.8 °F 50.0 °F 68% 30.15 in - East 4.6 mph - N/A   Clear
11:20 AM 62.6 °F 50.0 °F 63% 30.15 in - East 5.8 mph - N/A   Clear
11:50 AM 64.4 °F 51.8 °F 64% 30.12 in - ENE 4.6 mph - N/A   Clear
12:20 PM 64.4 °F 51.8 °F 64% 30.12 in - ENE 4.6 mph - N/A   Clear
12:50 PM 68.0 °F 51.8 °F 56% 30.12 in - East 3.5 mph - N/A   Clear
1:20 PM 68.0 °F 51.8 °F 56% 30.12 in - ENE 3.5 mph - N/A   Clear
1:50 PM 69.8 °F 51.8 °F 53% 30.09 in - NE 2.3 mph - N/A   Clear
2:00 PM 70 °F 51 °F 41% 30.12 in 6 mi NE 2.3 mph - -  
2:20 PM 71.6 °F 51.8 °F 50% 30.09 in - East 3.5 mph - N/A   Clear
2:50 PM 69.8 °F 48.2 °F 46% 30.09 in - South 8.1 mph - N/A   Clear
3:20 PM 68.0 °F 48.2 °F 49% 30.09 in - SW 5.8 mph - N/A   Clear
3:50 PM 68.0 °F 48.2 °F 49% 30.09 in - SSE 3.5 mph - N/A   Clear
4:20 PM 68.0 °F 50.0 °F 52% 30.09 in - SW 2.3 mph - N/A   Clear
4:50 PM 66.2 °F 51.8 °F 60% 30.09 in - East 2.3 mph - N/A   Clear
5:20 PM 60.8 °F 53.6 °F 77% 30.09 in - East 4.6 mph - N/A   Clear
5:50 PM 59.0 °F 53.6 °F 82% 30.12 in - East 3.5 mph - N/A   Clear
6:20 PM 59.0 °F 51.8 °F 77% 30.12 in - East 3.5 mph - N/A   Clear
6:50 PM 55.4 °F 48.2 °F 77% 30.12 in - ESE 2.3 mph - N/A   Clear
7:20 PM 57.2 °F 51.8 °F 82% 30.12 in - East 4.6 mph - N/A   Clear
7:50 PM 57.2 °F 48.2 °F 72% 30.12 in 6.2 mi ESE 5.8 mph - N/A   Partly Cloudy
8:50 PM 60.8 °F 44.6 °F 55% 30.15 in 6.2 mi ESE 9.2 mph - N/A   Partly Cloudy
9:50 PM 60.8 °F 44.6 °F 55% 30.15 in 6.2 mi East 10.4 mph - N/A   Partly Cloudy
10:50 PM 60.8 °F 44.6 °F 55% 30.15 in 6.2 mi ESE 13.8 mph - N/A   Partly Cloudy
11:50 PM 62.6 °F 46.4 °F 55% 30.15 in 6.2 mi East 15.0 mph - N/A   Partly Cloudy